owner,sensor,date,latitude,longitude,air_pressure(mBar),qcFlag 
COMPS,ioos:station:USF.COMPS:NFB:1,2012-04-02T13:00:00Z,25.0840,-81.0960,1013.52,1111122 
COMPS,ioos:station:USF.COMPS:NFB:1,2012-04-02T13:06:00Z,25.0840,-81.0960,1013.58,1111122 
COMPS,ioos:station:USF.COMPS:NFB:1,2012-04-02T13:12:00Z,25.0840,-81.0960,1013.57,1111122 
COMPS,ioos:station:USF.COMPS:NFB:1,2012-04-02T13:18:00Z,25.0840,-81.0960,1013.57,1111122 
COMPS,ioos:station:USF.COMPS:NFB:1,2012-04-02T13:24:00Z,25.0840,-81.0960,1013.61,1111122 
COMPS,ioos:station:USF.COMPS:NFB:1,2012-04-02T13:30:00Z,25.0840,-81.0960,1013.72,1111122 
COMPS,ioos:station:USF.COMPS:NFB:1,2012-04-02T13:36:00Z,25.0840,-81.0960,1013.85,1111122 
COMPS,ioos:station:USF.COMPS:NFB:1,2012-04-02T13:42:00Z,25.0840,-81.0960,1013.88,1111122 
COMPS,ioos:station:USF.COMPS:NFB:1,2012-04-02T13:48:00Z,25.0840,-81.0960,1013.89,1111122 
COMPS,ioos:station:USF.COMPS:NFB:1,2012-04-02T13:54:00Z,25.0840,-81.0960,1013.9,1111122 
COMPS,ioos:station:USF.COMPS:NFB:1,2012-04-02T14:00:00Z,25.0840,-81.0960,1013.9,1111122 
COMPS,ioos:station:USF.COMPS:NFB:1,2012-04-02T14:06:00Z,25.0840,-81.0960,1014.1,1111122 
COMPS,ioos:station:USF.COMPS:NFB:1,2012-04-02T14:12:00Z,25.0840,-81.0960,1014.12,1111122 
COMPS,ioos:station:USF.COMPS:NFB:1,2012-04-02T14:18:00Z,25.0840,-81.0960,1014.14,1111122 
COMPS,ioos:station:USF.COMPS:NFB:1,2012-04-02T14:24:00Z,25.0840,-81.0960,1014.14,1111122 
COMPS,ioos:station:USF.COMPS:NFB:1,2012-04-02T14:30:00Z,25.0840,-81.0960,1014.2,1111122 
COMPS,ioos:station:USF.COMPS:NFB:1,2012-04-02T14:36:00Z,25.0840,-81.0960,1014.18,1111122 
COMPS,ioos:station:USF.COMPS:NFB:1,2012-04-02T14:42:00Z,25.0840,-81.0960,1014.22,1111122 
COMPS,ioos:station:USF.COMPS:NFB:1,2012-04-02T14:48:00Z,25.0840,-81.0960,1014.2,1111122 
COMPS,ioos:station:USF.COMPS:NFB:1,2012-04-02T14:54:00Z,25.0840,-81.0960,1014.26,1111122 
COMPS,ioos:station:USF.COMPS:NFB:1,2012-04-02T15:00:00Z,25.0840,-81.0960,1014.3,1111122 
COMPS,ioos:station:USF.COMPS:NFB:1,2012-04-02T15:06:00Z,25.0840,-81.0960,1014.21,1111122 
COMPS,ioos:station:USF.COMPS:NFB:1,2012-04-02T15:12:00Z,25.0840,-81.0960,1014.32,1111122 
COMPS,ioos:station:USF.COMPS:NFB:1,2012-04-02T15:18:00Z,25.0840,-81.0960,1014.41,1111122 
COMPS,ioos:station:USF.COMPS:NFB:1,2012-04-02T15:24:00Z,25.0840,-81.0960,1014.49,1111122 
COMPS,ioos:station:USF.COMPS:NFB:1,2012-04-02T15:30:00Z,25.0840,-81.0960,1014.46,1111122 
COMPS,ioos:station:USF.COMPS:NFB:1,2012-04-02T15:36:00Z,25.0840,-81.0960,1014.52,1111122 
COMPS,ioos:station:USF.COMPS:NFB:1,2012-04-02T15:42:00Z,25.0840,-81.0960,1014.58,1111122 
COMPS,ioos:station:USF.COMPS:NFB:1,2012-04-02T15:48:00Z,25.0840,-81.0960,1014.57,1111122 
COMPS,ioos:station:USF.COMPS:NFB:1,2012-04-02T15:54:00Z,25.0840,-81.0960,1014.53,1111122 
COMPS,ioos:station:USF.COMPS:NFB:1,2012-04-02T16:00:00Z,25.0840,-81.0960,1014.5,1111122 
COMPS,ioos:station:USF.COMPS:NFB:1,2012-04-02T16:06:00Z,25.0840,-81.0960,1014.57,1111122 
COMPS,ioos:station:USF.COMPS:NFB:1,2012-04-02T16:12:00Z,25.0840,-81.0960,1014.53,1111122 
COMPS,ioos:station:USF.COMPS:NFB:1,2012-04-02T16:18:00Z,25.0840,-81.0960,1014.45,1111122 
COMPS,ioos:station:USF.COMPS:NFB:1,2012-04-02T16:24:00Z,25.0840,-81.0960,1014.45,1111122 
COMPS,ioos:station:USF.COMPS:NFB:1,2012-04-02T16:30:00Z,25.0840,-81.0960,1014.44,1111122 
COMPS,ioos:station:USF.COMPS:NFB:1,2012-04-02T16:36:00Z,25.0840,-81.0960,1014.42,1111122 
COMPS,ioos:station:USF.COMPS:NFB:1,2012-04-02T16:42:00Z,25.0840,-81.0960,1014.32,1111122 
COMPS,ioos:station:USF.COMPS:NFB:1,2012-04-02T16:48:00Z,25.0840,-81.0960,1014.28,1111122 
COMPS,ioos:station:USF.COMPS:NFB:1,2012-04-02T16:54:00Z,25.0840,-81.0960,1014.28,1111122 
COMPS,ioos:station:USF.COMPS:NFB:1,2012-04-02T17:00:00Z,25.0840,-81.0960,1014.3,1111122 
COMPS,ioos:station:USF.COMPS:NFB:1,2012-04-02T17:06:00Z,25.0840,-81.0960,1014.3,1111122 
COMPS,ioos:station:USF.COMPS:NFB:1,2012-04-02T17:12:00Z,25.0840,-81.0960,1014.26,1111122 
COMPS,ioos:station:USF.COMPS:NFB:1,2012-04-02T17:18:00Z,25.0840,-81.0960,1014.2,1111122 
COMPS,ioos:station:USF.COMPS:NFB:1,2012-04-02T17:24:00Z,25.0840,-81.0960,1014.14,1111122 
COMPS,ioos:station:USF.COMPS:NFB:1,2012-04-02T17:30:00Z,25.0840,-81.0960,1014.13,1111122 
COMPS,ioos:station:USF.COMPS:NFB:1,2012-04-02T17:36:00Z,25.0840,-81.0960,1014.08,1111122 
COMPS,ioos:station:USF.COMPS:NFB:1,2012-04-02T17:42:00Z,25.0840,-81.0960,1014.06,1111122 
COMPS,ioos:station:USF.COMPS:NFB:1,2012-04-02T17:48:00Z,25.0840,-81.0960,1014.09,1111122 
COMPS,ioos:station:USF.COMPS:NFB:1,2012-04-02T17:54:00Z,25.0840,-81.0960,1014.04,1111122 
COMPS,ioos:station:USF.COMPS:NFB:1,2012-04-02T18:00:00Z,25.0840,-81.0960,1013.96,1111122 
COMPS,ioos:station:USF.COMPS:NFB:1,2012-04-02T18:06:00Z,25.0840,-81.0960,1013.92,1111122 
COMPS,ioos:station:USF.COMPS:NFB:1,2012-04-02T18:12:00Z,25.0840,-81.0960,1013.9,1111122 
COMPS,ioos:station:USF.COMPS:NFB:1,2012-04-02T18:18:00Z,25.0840,-81.0960,1013.92,1111122 
COMPS,ioos:station:USF.COMPS:NFB:1,2012-04-02T18:24:00Z,25.0840,-81.0960,1013.85,1111122 
COMPS,ioos:station:USF.COMPS:NFB:1,2012-04-02T18:30:00Z,25.0840,-81.0960,1013.84,1111122 
COMPS,ioos:station:USF.COMPS:NFB:1,2012-04-02T18:36:00Z,25.0840,-81.0960,1013.88,1111122 
COMPS,ioos:station:USF.COMPS:NFB:1,2012-04-02T18:42:00Z,25.0840,-81.0960,1013.86,1111122 
COMPS,ioos:station:USF.COMPS:NFB:1,2012-04-02T18:48:00Z,25.0840,-81.0960,1013.77,1111122 
COMPS,ioos:station:USF.COMPS:NFB:1,2012-04-02T18:54:00Z,25.0840,-81.0960,1013.76,1111122 
COMPS,ioos:station:USF.COMPS:NFB:1,2012-04-02T19:00:00Z,25.0840,-81.0960,1013.8,1111122 
COMPS,ioos:station:USF.COMPS:NFB:1,2012-04-02T19:06:00Z,25.0840,-81.0960,1013.62,1111122 
COMPS,ioos:station:USF.COMPS:NFB:1,2012-04-02T19:12:00Z,25.0840,-81.0960,1013.54,1111122 
COMPS,ioos:station:USF.COMPS:NFB:1,2012-04-02T19:18:00Z,25.0840,-81.0960,1013.52,1111122 
COMPS,ioos:station:USF.COMPS:NFB:1,2012-04-02T19:24:00Z,25.0840,-81.0960,1013.38,1111122 
COMPS,ioos:station:USF.COMPS:NFB:1,2012-04-02T19:30:00Z,25.0840,-81.0960,1013.3,1111122 
COMPS,ioos:station:USF.COMPS:NFB:1,2012-04-02T19:36:00Z,25.0840,-81.0960,1013.21,1111122 
COMPS,ioos:station:USF.COMPS:NFB:1,2012-04-02T19:42:00Z,25.0840,-81.0960,1013.16,1111122 
COMPS,ioos:station:USF.COMPS:NFB:1,2012-04-02T19:48:00Z,25.0840,-81.0960,1013.34,1111122 
COMPS,ioos:station:USF.COMPS:NFB:1,2012-04-02T19:54:00Z,25.0840,-81.0960,1013.26,1111122 
COMPS,ioos:station:USF.COMPS:NFB:1,2012-04-02T20:00:00Z,25.0840,-81.0960,1013.3,1111122 
COMPS,ioos:station:USF.COMPS:NFB:1,2012-04-02T20:06:00Z,25.0840,-81.0960,1013.13,1111122 
COMPS,ioos:station:USF.COMPS:NFB:1,2012-04-02T20:12:00Z,25.0840,-81.0960,1013.06,1111122 
COMPS,ioos:station:USF.COMPS:NFB:1,2012-04-02T20:18:00Z,25.0840,-81.0960,1012.76,1111122 
COMPS,ioos:station:USF.COMPS:NFB:1,2012-04-02T20:24:00Z,25.0840,-81.0960,1012.65,1111122 
COMPS,ioos:station:USF.COMPS:NFB:1,2012-04-02T20:30:00Z,25.0840,-81.0960,1012.58,1111122 
COMPS,ioos:station:USF.COMPS:NFB:1,2012-04-02T20:36:00Z,25.0840,-81.0960,1012.57,1111122 
COMPS,ioos:station:USF.COMPS:NFB:1,2012-04-02T20:42:00Z,25.0840,-81.0960,1012.41,1111122 
COMPS,ioos:station:USF.COMPS:NFB:1,2012-04-02T20:48:00Z,25.0840,-81.0960,1012.21,1111122 
COMPS,ioos:station:USF.COMPS:NFB:1,2012-04-02T20:54:00Z,25.0840,-81.0960,1012.26,1111122 
COMPS,ioos:station:USF.COMPS:NFB:1,2012-04-02T21:00:00Z,25.0840,-81.0960,1012.3,1111122 
COMPS,ioos:station:USF.COMPS:NFB:1,2012-04-02T21:06:00Z,25.0840,-81.0960,1012.09,1111122 
COMPS,ioos:station:USF.COMPS:NFB:1,2012-04-02T21:12:00Z,25.0840,-81.0960,1012.08,1111122 
COMPS,ioos:station:USF.COMPS:NFB:1,2012-04-02T21:18:00Z,25.0840,-81.0960,1012.21,1111122 
COMPS,ioos:station:USF.COMPS:NFB:1,2012-04-02T21:24:00Z,25.0840,-81.0960,1012.08,1111122 
COMPS,ioos:station:USF.COMPS:NFB:1,2012-04-02T21:30:00Z,25.0840,-81.0960,1011.93,1111122 
COMPS,ioos:station:USF.COMPS:NFB:1,2012-04-02T21:36:00Z,25.0840,-81.0960,1011.92,1111122 
COMPS,ioos:station:USF.COMPS:NFB:1,2012-04-02T21:42:00Z,25.0840,-81.0960,1011.81,1111122 
COMPS,ioos:station:USF.COMPS:NFB:1,2012-04-02T21:48:00Z,25.0840,-81.0960,1011.73,1111122 
COMPS,ioos:station:USF.COMPS:NFB:1,2012-04-02T21:54:00Z,25.0840,-81.0960,1011.73,1111122 
COMPS,ioos:station:USF.COMPS:NFB:1,2012-04-02T22:00:00Z,25.0840,-81.0960,1011.8,1111122 
COMPS,ioos:station:USF.COMPS:NFB:1,2012-04-02T22:06:00Z,25.0840,-81.0960,1011.8,1111122 
COMPS,ioos:station:USF.COMPS:NFB:1,2012-04-02T22:12:00Z,25.0840,-81.0960,1011.81,1111122 
COMPS,ioos:station:USF.COMPS:NFB:1,2012-04-02T22:18:00Z,25.0840,-81.0960,1011.73,1111122 
COMPS,ioos:station:USF.COMPS:NFB:1,2012-04-02T22:24:00Z,25.0840,-81.0960,1011.86,1111122 
COMPS,ioos:station:USF.COMPS:NFB:1,2012-04-02T22:30:00Z,25.0840,-81.0960,1011.92,1111122 
COMPS,ioos:station:USF.COMPS:NFB:1,2012-04-02T22:36:00Z,25.0840,-81.0960,1011.93,1111122 
COMPS,ioos:station:USF.COMPS:NFB:1,2012-04-02T22:42:00Z,25.0840,-81.0960,1011.86,1111122 
COMPS,ioos:station:USF.COMPS:NFB:1,2012-04-02T22:48:00Z,25.0840,-81.0960,1011.89,1111122 
COMPS,ioos:station:USF.COMPS:NFB:1,2012-04-02T22:54:00Z,25.0840,-81.0960,1011.94,1111122 
COMPS,ioos:station:USF.COMPS:NFB:1,2012-04-02T23:00:00Z,25.0840,-81.0960,1012.04,1111122 
COMPS,ioos:station:USF.COMPS:NFB:1,2012-04-02T23:06:00Z,25.0840,-81.0960,1012.01,1111122 
COMPS,ioos:station:USF.COMPS:NFB:1,2012-04-02T23:12:00Z,25.0840,-81.0960,1012.1,1111122 
COMPS,ioos:station:USF.COMPS:NFB:1,2012-04-02T23:18:00Z,25.0840,-81.0960,1012.12,1111122 
COMPS,ioos:station:USF.COMPS:NFB:1,2012-04-02T23:24:00Z,25.0840,-81.0960,1012.12,1111122 
COMPS,ioos:station:USF.COMPS:NFB:1,2012-04-02T23:30:00Z,25.0840,-81.0960,1012.22,1111122 
COMPS,ioos:station:USF.COMPS:NFB:1,2012-04-02T23:36:00Z,25.0840,-81.0960,1012.22,1111122 
COMPS,ioos:station:USF.COMPS:NFB:1,2012-04-02T23:42:00Z,25.0840,-81.0960,1012.36,1111122 
COMPS,ioos:station:USF.COMPS:NFB:1,2012-04-02T23:48:00Z,25.0840,-81.0960,1012.45,1111122 
COMPS,ioos:station:USF.COMPS:NFB:1,2012-04-02T23:54:00Z,25.0840,-81.0960,1012.58,1111122 
COMPS,ioos:station:USF.COMPS:NFB:1,2012-04-03T00:00:00Z,25.0840,-81.0960,1012.6,1111122 
COMPS,ioos:station:USF.COMPS:NFB:1,2012-04-03T00:06:00Z,25.0840,-81.0960,1012.58,1111122 
COMPS,ioos:station:USF.COMPS:NFB:1,2012-04-03T00:12:00Z,25.0840,-81.0960,1012.74,1111122 
COMPS,ioos:station:USF.COMPS:NFB:1,2012-04-03T00:18:00Z,25.0840,-81.0960,1012.84,1111122 
COMPS,ioos:station:USF.COMPS:NFB:1,2012-04-03T00:24:00Z,25.0840,-81.0960,1012.89,1111122 
COMPS,ioos:station:USF.COMPS:NFB:1,2012-04-03T00:30:00Z,25.0840,-81.0960,1012.97,1111122 
COMPS,ioos:station:USF.COMPS:NFB:1,2012-04-03T00:36:00Z,25.0840,-81.0960,1012.9,1111122 
COMPS,ioos:station:USF.COMPS:NFB:1,2012-04-03T00:42:00Z,25.0840,-81.0960,1012.96,1111122 
COMPS,ioos:station:USF.COMPS:NFB:1,2012-04-03T00:48:00Z,25.0840,-81.0960,1013.16,1111122 
COMPS,ioos:station:USF.COMPS:NFB:1,2012-04-03T00:54:00Z,25.0840,-81.0960,1013.3,1111122 
COMPS,ioos:station:USF.COMPS:NFB:1,2012-04-03T01:00:00Z,25.0840,-81.0960,1013.3,1111122 
COMPS,ioos:station:USF.COMPS:NFB:1,2012-04-03T01:06:00Z,25.0840,-81.0960,1013.22,1111122 
COMPS,ioos:station:USF.COMPS:NFB:1,2012-04-03T01:12:00Z,25.0840,-81.0960,1013.22,1111122 
COMPS,ioos:station:USF.COMPS:NFB:1,2012-04-03T01:18:00Z,25.0840,-81.0960,1013.28,1111122 
COMPS,ioos:station:USF.COMPS:NFB:1,2012-04-03T01:24:00Z,25.0840,-81.0960,1013.36,1111122 
COMPS,ioos:station:USF.COMPS:NFB:1,2012-04-03T01:30:00Z,25.0840,-81.0960,1013.32,1111122 
COMPS,ioos:station:USF.COMPS:NFB:1,2012-04-03T01:36:00Z,25.0840,-81.0960,1013.32,1111122 
COMPS,ioos:station:USF.COMPS:NFB:1,2012-04-03T01:42:00Z,25.0840,-81.0960,1013.45,1111122 
COMPS,ioos:station:USF.COMPS:NFB:1,2012-04-03T01:48:00Z,25.0840,-81.0960,1013.56,1111122 
COMPS,ioos:station:USF.COMPS:NFB:1,2012-04-03T01:54:00Z,25.0840,-81.0960,1013.65,1111122 
COMPS,ioos:station:USF.COMPS:NFB:1,2012-04-03T02:00:00Z,25.0840,-81.0960,1013.7,1111122 
COMPS,ioos:station:USF.COMPS:NFB:1,2012-04-03T02:06:00Z,25.0840,-81.0960,1013.89,1111122 
COMPS,ioos:station:USF.COMPS:NFB:1,2012-04-03T02:12:00Z,25.0840,-81.0960,1013.82,1111122 
COMPS,ioos:station:USF.COMPS:NFB:1,2012-04-03T02:18:00Z,25.0840,-81.0960,1013.93,1111122 
COMPS,ioos:station:USF.COMPS:NFB:1,2012-04-03T02:24:00Z,25.0840,-81.0960,1014.06,1111122 
COMPS,ioos:station:USF.COMPS:NFB:1,2012-04-03T02:30:00Z,25.0840,-81.0960,1014.16,1111122 
COMPS,ioos:station:USF.COMPS:NFB:1,2012-04-03T02:36:00Z,25.0840,-81.0960,1014.21,1111122 
COMPS,ioos:station:USF.COMPS:NFB:1,2012-04-03T02:42:00Z,25.0840,-81.0960,1014.34,1111122 
COMPS,ioos:station:USF.COMPS:NFB:1,2012-04-03T02:48:00Z,25.0840,-81.0960,1014.33,1111122 
COMPS,ioos:station:USF.COMPS:NFB:1,2012-04-03T02:54:00Z,25.0840,-81.0960,1014.3,1111122 
COMPS,ioos:station:USF.COMPS:NFB:1,2012-04-03T03:00:00Z,25.0840,-81.0960,1014.28,1111122 
COMPS,ioos:station:USF.COMPS:NFB:1,2012-04-03T03:06:00Z,25.0840,-81.0960,1014.29,1111122 
COMPS,ioos:station:USF.COMPS:NFB:1,2012-04-03T03:12:00Z,25.0840,-81.0960,1014.16,1111122 
COMPS,ioos:station:USF.COMPS:NFB:1,2012-04-03T03:18:00Z,25.0840,-81.0960,1014.1,1111122 
COMPS,ioos:station:USF.COMPS:NFB:1,2012-04-03T03:24:00Z,25.0840,-81.0960,1014.02,1111122 
COMPS,ioos:station:USF.COMPS:NFB:1,2012-04-03T03:30:00Z,25.0840,-81.0960,1013.92,1111122 
COMPS,ioos:station:USF.COMPS:NFB:1,2012-04-03T03:36:00Z,25.0840,-81.0960,1013.94,1111122 
COMPS,ioos:station:USF.COMPS:NFB:1,2012-04-03T03:42:00Z,25.0840,-81.0960,1013.97,1111122 
COMPS,ioos:station:USF.COMPS:NFB:1,2012-04-03T03:48:00Z,25.0840,-81.0960,1013.96,1111122 
COMPS,ioos:station:USF.COMPS:NFB:1,2012-04-03T03:54:00Z,25.0840,-81.0960,1013.88,1111122 
COMPS,ioos:station:USF.COMPS:NFB:1,2012-04-03T04:00:00Z,25.0840,-81.0960,1013.9,1111122 
COMPS,ioos:station:USF.COMPS:NFB:1,2012-04-03T04:06:00Z,25.0840,-81.0960,1013.93,1111122 
COMPS,ioos:station:USF.COMPS:NFB:1,2012-04-03T04:12:00Z,25.0840,-81.0960,1013.96,1111122 
COMPS,ioos:station:USF.COMPS:NFB:1,2012-04-03T04:18:00Z,25.0840,-81.0960,1013.78,1111122 
COMPS,ioos:station:USF.COMPS:NFB:1,2012-04-03T04:24:00Z,25.0840,-81.0960,1013.94,1111122 
COMPS,ioos:station:USF.COMPS:NFB:1,2012-04-03T04:30:00Z,25.0840,-81.0960,1014.0,1111122 
COMPS,ioos:station:USF.COMPS:NFB:1,2012-04-03T04:36:00Z,25.0840,-81.0960,1014.02,1111122 
COMPS,ioos:station:USF.COMPS:NFB:1,2012-04-03T04:42:00Z,25.0840,-81.0960,1014.06,1111122 
COMPS,ioos:station:USF.COMPS:NFB:1,2012-04-03T04:48:00Z,25.0840,-81.0960,1014.09,1111122 
COMPS,ioos:station:USF.COMPS:NFB:1,2012-04-03T04:54:00Z,25.0840,-81.0960,1014.14,1111122 
COMPS,ioos:station:USF.COMPS:NFB:1,2012-04-03T05:00:00Z,25.0840,-81.0960,1014.08,1111122 
COMPS,ioos:station:USF.COMPS:NFB:1,2012-04-03T05:06:00Z,25.0840,-81.0960,1013.98,1111122 
COMPS,ioos:station:USF.COMPS:NFB:1,2012-04-03T05:12:00Z,25.0840,-81.0960,1013.9,1111122 
COMPS,ioos:station:USF.COMPS:NFB:1,2012-04-03T05:18:00Z,25.0840,-81.0960,1014.0,1111122 
COMPS,ioos:station:USF.COMPS:NFB:1,2012-04-03T05:24:00Z,25.0840,-81.0960,1014.0,1111122 
COMPS,ioos:station:USF.COMPS:NFB:1,2012-04-03T05:30:00Z,25.0840,-81.0960,1014.05,1111122 
COMPS,ioos:station:USF.COMPS:NFB:1,2012-04-03T05:36:00Z,25.0840,-81.0960,1014.14,1111122 
COMPS,ioos:station:USF.COMPS:NFB:1,2012-04-03T05:42:00Z,25.0840,-81.0960,1014.17,1111122 
COMPS,ioos:station:USF.COMPS:NFB:1,2012-04-03T05:48:00Z,25.0840,-81.0960,1014.14,1111122 
COMPS,ioos:station:USF.COMPS:NFB:1,2012-04-03T05:54:00Z,25.0840,-81.0960,1014.14,1111122 
COMPS,ioos:station:USF.COMPS:NFB:1,2012-04-03T06:00:00Z,25.0840,-81.0960,1014.09,1111122 
COMPS,ioos:station:USF.COMPS:NFB:1,2012-04-03T06:06:00Z,25.0840,-81.0960,1013.94,1111122 
COMPS,ioos:station:USF.COMPS:NFB:1,2012-04-03T06:12:00Z,25.0840,-81.0960,1013.82,1111122 
COMPS,ioos:station:USF.COMPS:NFB:1,2012-04-03T06:18:00Z,25.0840,-81.0960,1013.73,1111122 
COMPS,ioos:station:USF.COMPS:NFB:1,2012-04-03T06:24:00Z,25.0840,-81.0960,1013.68,1111122 
COMPS,ioos:station:USF.COMPS:NFB:1,2012-04-03T06:30:00Z,25.0840,-81.0960,1013.66,1111122 
COMPS,ioos:station:USF.COMPS:NFB:1,2012-04-03T06:36:00Z,25.0840,-81.0960,1013.5,1111122 
COMPS,ioos:station:USF.COMPS:NFB:1,2012-04-03T06:42:00Z,25.0840,-81.0960,1013.4,1111122 
COMPS,ioos:station:USF.COMPS:NFB:1,2012-04-03T06:48:00Z,25.0840,-81.0960,1013.3,1111122 
COMPS,ioos:station:USF.COMPS:NFB:1,2012-04-03T06:54:00Z,25.0840,-81.0960,1013.29,1111122 
COMPS,ioos:station:USF.COMPS:NFB:1,2012-04-03T07:00:00Z,25.0840,-81.0960,1013.21,1111122 
COMPS,ioos:station:USF.COMPS:NFB:1,2012-04-03T07:06:00Z,25.0840,-81.0960,1013.26,1111122 
COMPS,ioos:station:USF.COMPS:NFB:1,2012-04-03T07:12:00Z,25.0840,-81.0960,1013.36,1111122 
COMPS,ioos:station:USF.COMPS:NFB:1,2012-04-03T07:18:00Z,25.0840,-81.0960,1013.29,1111122 
COMPS,ioos:station:USF.COMPS:NFB:1,2012-04-03T07:24:00Z,25.0840,-81.0960,1013.38,1111122 
COMPS,ioos:station:USF.COMPS:NFB:1,2012-04-03T07:30:00Z,25.0840,-81.0960,1013.37,1111122 
COMPS,ioos:station:USF.COMPS:NFB:1,2012-04-03T07:36:00Z,25.0840,-81.0960,1013.29,1111122 
COMPS,ioos:station:USF.COMPS:NFB:1,2012-04-03T07:42:00Z,25.0840,-81.0960,1013.4,1111122 
COMPS,ioos:station:USF.COMPS:NFB:1,2012-04-03T07:48:00Z,25.0840,-81.0960,1013.44,1111122 
COMPS,ioos:station:USF.COMPS:NFB:1,2012-04-03T07:54:00Z,25.0840,-81.0960,1013.38,1111122 
COMPS,ioos:station:USF.COMPS:NFB:1,2012-04-03T08:00:00Z,25.0840,-81.0960,1013.4,1111122 
COMPS,ioos:station:USF.COMPS:NFB:1,2012-04-03T08:06:00Z,25.0840,-81.0960,1013.32,1111122 
COMPS,ioos:station:USF.COMPS:NFB:1,2012-04-03T08:12:00Z,25.0840,-81.0960,1013.22,1111122 
COMPS,ioos:station:USF.COMPS:NFB:1,2012-04-03T08:18:00Z,25.0840,-81.0960,1013.22,1111122 
COMPS,ioos:station:USF.COMPS:NFB:1,2012-04-03T08:24:00Z,25.0840,-81.0960,1013.26,1111122 
COMPS,ioos:station:USF.COMPS:NFB:1,2012-04-03T08:30:00Z,25.0840,-81.0960,1013.25,1111122 
COMPS,ioos:station:USF.COMPS:NFB:1,2012-04-03T08:36:00Z,25.0840,-81.0960,1013.29,1111122 
COMPS,ioos:station:USF.COMPS:NFB:1,2012-04-03T08:42:00Z,25.0840,-81.0960,1013.29,1111122 
COMPS,ioos:station:USF.COMPS:NFB:1,2012-04-03T08:48:00Z,25.0840,-81.0960,1013.24,1111122 
COMPS,ioos:station:USF.COMPS:NFB:1,2012-04-03T08:54:00Z,25.0840,-81.0960,1013.33,1111122 
COMPS,ioos:station:USF.COMPS:NFB:1,2012-04-03T09:00:00Z,25.0840,-81.0960,1013.36,1111122 
COMPS,ioos:station:USF.COMPS:NFB:1,2012-04-03T09:06:00Z,25.0840,-81.0960,1013.41,1111122 
COMPS,ioos:station:USF.COMPS:NFB:1,2012-04-03T09:12:00Z,25.0840,-81.0960,1013.44,1111122 
COMPS,ioos:station:USF.COMPS:NFB:1,2012-04-03T09:18:00Z,25.0840,-81.0960,1013.49,1111122 
COMPS,ioos:station:USF.COMPS:NFB:1,2012-04-03T09:24:00Z,25.0840,-81.0960,1013.54,1111122 
COMPS,ioos:station:USF.COMPS:NFB:1,2012-04-03T09:30:00Z,25.0840,-81.0960,1013.48,1111122 
COMPS,ioos:station:USF.COMPS:NFB:1,2012-04-03T09:36:00Z,25.0840,-81.0960,1013.48,1111122 
COMPS,ioos:station:USF.COMPS:NFB:1,2012-04-03T09:42:00Z,25.0840,-81.0960,1013.6,1111122 
COMPS,ioos:station:USF.COMPS:NFB:1,2012-04-03T09:48:00Z,25.0840,-81.0960,1013.73,1111122 
COMPS,ioos:station:USF.COMPS:NFB:1,2012-04-03T09:54:00Z,25.0840,-81.0960,1013.85,1111122 
COMPS,ioos:station:USF.COMPS:NFB:1,2012-04-03T10:00:00Z,25.0840,-81.0960,1013.88,1111122 
COMPS,ioos:station:USF.COMPS:NFB:1,2012-04-03T10:06:00Z,25.0840,-81.0960,1013.96,1111122 
COMPS,ioos:station:USF.COMPS:NFB:1,2012-04-03T10:12:00Z,25.0840,-81.0960,1013.98,1111122 
COMPS,ioos:station:USF.COMPS:NFB:1,2012-04-03T10:18:00Z,25.0840,-81.0960,1014.06,1111122 
COMPS,ioos:station:USF.COMPS:NFB:1,2012-04-03T10:24:00Z,25.0840,-81.0960,1014.12,1111122 
COMPS,ioos:station:USF.COMPS:NFB:1,2012-04-03T10:30:00Z,25.0840,-81.0960,1014.05,1111122 
COMPS,ioos:station:USF.COMPS:NFB:1,2012-04-03T10:36:00Z,25.0840,-81.0960,1014.04,1111122 
COMPS,ioos:station:USF.COMPS:NFB:1,2012-04-03T10:42:00Z,25.0840,-81.0960,1014.06,1111122 
COMPS,ioos:station:USF.COMPS:NFB:1,2012-04-03T10:48:00Z,25.0840,-81.0960,1014.09,1111122 
COMPS,ioos:station:USF.COMPS:NFB:1,2012-04-03T10:54:00Z,25.0840,-81.0960,1014.16,1111122 
COMPS,ioos:station:USF.COMPS:NFB:1,2012-04-03T11:00:00Z,25.0840,-81.0960,1014.21,1111122 
COMPS,ioos:station:USF.COMPS:NFB:1,2012-04-03T11:06:00Z,25.0840,-81.0960,1014.25,1111122 
COMPS,ioos:station:USF.COMPS:NFB:1,2012-04-03T11:12:00Z,25.0840,-81.0960,1014.34,1111122 
COMPS,ioos:station:USF.COMPS:NFB:1,2012-04-03T11:18:00Z,25.0840,-81.0960,1014.38,1111122 
COMPS,ioos:station:USF.COMPS:NFB:1,2012-04-03T11:24:00Z,25.0840,-81.0960,1014.34,1111122 
COMPS,ioos:station:USF.COMPS:NFB:1,2012-04-03T11:30:00Z,25.0840,-81.0960,1014.4,1111122 
COMPS,ioos:station:USF.COMPS:NFB:1,2012-04-03T11:36:00Z,25.0840,-81.0960,1014.46,1111122 
COMPS,ioos:station:USF.COMPS:NFB:1,2012-04-03T11:42:00Z,25.0840,-81.0960,1014.54,1111122 
COMPS,ioos:station:USF.COMPS:NFB:1,2012-04-03T11:48:00Z,25.0840,-81.0960,1014.6,1111122 
COMPS,ioos:station:USF.COMPS:NFB:1,2012-04-03T11:54:00Z,25.0840,-81.0960,1014.68,1111122 
COMPS,ioos:station:USF.COMPS:NFB:1,2012-04-03T12:00:00Z,25.0840,-81.0960,1014.73,1111122 
COMPS,ioos:station:USF.COMPS:NFB:1,2012-04-03T12:06:00Z,25.0840,-81.0960,1014.81,1111122 
COMPS,ioos:station:USF.COMPS:NFB:1,2012-04-03T12:12:00Z,25.0840,-81.0960,1014.8,1111122 
COMPS,ioos:station:USF.COMPS:NFB:1,2012-04-03T12:18:00Z,25.0840,-81.0960,1014.77,1111122 
COMPS,ioos:station:USF.COMPS:NFB:1,2012-04-03T12:24:00Z,25.0840,-81.0960,1014.86,1111122 
COMPS,ioos:station:USF.COMPS:NFB:1,2012-04-03T12:30:00Z,25.0840,-81.0960,1014.92,1111122 
COMPS,ioos:station:USF.COMPS:NFB:1,2012-04-03T12:36:00Z,25.0840,-81.0960,1015.09,1111122 
COMPS,ioos:station:USF.COMPS:NFB:1,2012-04-03T12:42:00Z,25.0840,-81.0960,1015.18,1111122 
COMPS,ioos:station:USF.COMPS:NFB:1,2012-04-03T12:48:00Z,25.0840,-81.0960,1015.22,1111122 
COMPS,ioos:station:USF.COMPS:NFB:1,2012-04-03T12:54:00Z,25.0840,-81.0960,1015.25,1111122 
COMPS,ioos:station:USF.COMPS:NFB:1,2012-04-03T13:00:00Z,25.0840,-81.0960,1015.3,1111122 
COMPS,ioos:station:USF.COMPS:NFB:1,2012-04-03T13:06:00Z,25.0840,-81.0960,1015.28,1111122 
COMPS,ioos:station:USF.COMPS:NFB:1,2012-04-03T13:12:00Z,25.0840,-81.0960,1015.45,1111122 
COMPS,ioos:station:USF.COMPS:NFB:1,2012-04-03T13:18:00Z,25.0840,-81.0960,1015.57,1111122 
COMPS,ioos:station:USF.COMPS:NFB:1,2012-04-03T13:24:00Z,25.0840,-81.0960,1015.53,1111122 
COMPS,ioos:station:USF.COMPS:NFB:1,2012-04-03T13:30:00Z,25.0840,-81.0960,1015.57,1111122 
COMPS,ioos:station:USF.COMPS:NFB:1,2012-04-03T13:36:00Z,25.0840,-81.0960,1015.48,1111122 
COMPS,ioos:station:USF.COMPS:NFB:1,2012-04-03T13:42:00Z,25.0840,-81.0960,1015.38,1111122 
COMPS,ioos:station:USF.COMPS:NFB:1,2012-04-03T13:48:00Z,25.0840,-81.0960,1015.45,1111122 
COMPS,ioos:station:USF.COMPS:NFB:1,2012-04-03T13:54:00Z,25.0840,-81.0960,1015.38,1111122 
COMPS,ioos:station:USF.COMPS:NFB:1,2012-04-03T14:00:00Z,25.0840,-81.0960,1015.4,1111122 
COMPS,ioos:station:USF.COMPS:NFB:1,2012-04-03T14:06:00Z,25.0840,-81.0960,1015.25,1111122 
COMPS,ioos:station:USF.COMPS:NFB:1,2012-04-03T14:12:00Z,25.0840,-81.0960,1015.21,1111122 
COMPS,ioos:station:USF.COMPS:NFB:1,2012-04-03T14:18:00Z,25.0840,-81.0960,1015.3,1111122 
COMPS,ioos:station:USF.COMPS:NFB:1,2012-04-03T14:24:00Z,25.0840,-81.0960,1015.41,1111122 
COMPS,ioos:station:USF.COMPS:NFB:1,2012-04-03T14:30:00Z,25.0840,-81.0960,1015.6,1111122 
COMPS,ioos:station:USF.COMPS:NFB:1,2012-04-03T14:36:00Z,25.0840,-81.0960,1015.64,1111122 
COMPS,ioos:station:USF.COMPS:NFB:1,2012-04-03T14:42:00Z,25.0840,-81.0960,1015.68,1111122 
COMPS,ioos:station:USF.COMPS:NFB:1,2012-04-03T14:48:00Z,25.0840,-81.0960,1015.73,1111122 
COMPS,ioos:station:USF.COMPS:NFB:1,2012-04-03T14:54:00Z,25.0840,-81.0960,1015.82,1111122 
COMPS,ioos:station:USF.COMPS:NFB:1,2012-04-03T15:00:00Z,25.0840,-81.0960,1015.8,1111122 
COMPS,ioos:station:USF.COMPS:NFB:1,2012-04-03T15:06:00Z,25.0840,-81.0960,1015.86,1111122 
COMPS,ioos:station:USF.COMPS:NFB:1,2012-04-03T15:12:00Z,25.0840,-81.0960,1015.85,1111122 
COMPS,ioos:station:USF.COMPS:NFB:1,2012-04-03T15:18:00Z,25.0840,-81.0960,1015.81,1111122 
COMPS,ioos:station:USF.COMPS:NFB:1,2012-04-03T15:24:00Z,25.0840,-81.0960,1015.81,1111122 
COMPS,ioos:station:USF.COMPS:NFB:1,2012-04-03T15:30:00Z,25.0840,-81.0960,1015.72,1111122 